Location: Eastlake (historical)
(39.0077°N, 122.6678°W)
Time: 18:14:41
(UTC+00:00)

Cosmos 1515 Rocket - Pass Details

Date: 25 November 2020
Orbit: 605 x 631 km, 82.5° (Epoch: 23 January)

Event Time Altitude Azimuth Distance (km) Brightness Sun altitude
Rises 14:20:49 0° 346° (NNW) 2,926 6.7 -8.7°
Reaches altitude 10° 14:23:06 10° 341° (NNW) 2,016 5.8 -8.3°
Maximum altitude 14:27:24 48° 267° (W) 829 3.9 -7.5°
Drops below altitude 10° 14:31:40 10° 193° (SSW) 2,003 6.3 -6.8°
Sets 14:33:57 0° 188° (S) 2,905 7.2 -6.4°
